Waarnemingen

Advertentie
Mijn weer
Storlien-Visjovalen A, Zweden (2207): temperatuur & dauwpunt: 16.01.2021 23:00:00 - 22.01.2021 23:00:00 (CET)Storlien-Visjovalen A, Zweden (2207): windsnelheid & windstoten: 16.01.2021 23:00:00 - 22.01.2021 23:00:00 (CET)Storlien-Visjovalen A, Zweden (2207): windrichting: 16.01.2021 23:00:00 - 22.01.2021 23:00:00 (CET)Storlien-Visjovalen A, Zweden (2207): luchtdruk: 16.01.2021 23:00:00 - 22.01.2021 23:00:00 (CET)Storlien-Visjovalen A, Zweden (2207): zicht: 16.01.2021 23:00:00 - 22.01.2021 23:00:00 (CET)Storlien-Visjovalen A, Zweden (2207): neerslag: 16.01.2021 23:00:00 - 22.01.2021 23:00:00 (CET)
Datum & Tijd tt [°C] td [°C] ff [km/u] ff [kn] fx [km/u] fx [kn] dd ppp [hPa] vv [km] rr [mm]
22.01.2021 23:00:00 -2,8 -4,1 11 6 33 18 O 974,5 0,8 1,0
22.01.2021 22:00:00 -1,9 -2,9 3 1 7 4 OZO 974,1 1,3 0,8
22.01.2021 21:00:00 -1,9 -2,9 4 2 14 8 O 974,4 1,6 0,8
22.01.2021 20:00:00 -1,8 -3,1 6 4 21 11 O 974,7 2,0 0,3
22.01.2021 19:00:00 -1,5 -3,8 7 4 25 13 O 974,5 50 0,0
22.01.2021 18:00:00 -1,2 -3,9 10 5 23 12 O 974,7 50 0,0
22.01.2021 17:00:00 -0,8 -4,0 18 10 44 24 OZO 974,4 50 0,0
22.01.2021 16:00:00 0,3 -4,2 29 15 47 26 ZO 974,1 9 0,0
22.01.2021 15:00:00 -0,2 -3,9 13 7 41 22 O 974,5 50 0,0
22.01.2021 14:00:00 0,0 -3,7 28 15 51 27 OZO 974,0 12 0,0
22.01.2021 13:00:00 0,0 -5,2 23 13 48 26 ZO 973,6 26 0,0
22.01.2021 12:00:00 0,4 -4,4 18 10 48 26 O 972,9 30 0,0
22.01.2021 11:00:00 0,7 -4,5 26 14 59 32 ZZO 972,6 21 0,0
22.01.2021 10:00:00 0,6 -3,9 24 13 47 26 ZZO 972,2 50 0,0
22.01.2021 09:00:00 1,4 -4,1 23 12 45 25 ZZO 972,0 50 0,0
22.01.2021 08:00:00 1,1 -3,2 9 5 33 18 O 971,6 50 0,0
22.01.2021 07:00:00 0,9 -3,2 17 9 40 22 OZO 970,9 35 -
22.01.2021 06:00:00 0,3 -3,4 17 9 39 21 ZO 970,9 31 0,0
22.01.2021 05:00:00 -0,3 -3,3 24 13 48 26 OZO 971,2 7 0,0
22.01.2021 04:00:00 -1,6 -4,8 15 8 43 23 O 972,2 27 0,0
22.01.2021 03:00:00 -2,0 -4,3 11 6 32 17 O 972,6 50 0,0
22.01.2021 02:00:00 -3,7 -5,5 12 7 28 15 ZO 973,4 14 0,0
22.01.2021 01:00:00 -4,4 -6,1 13 7 26 14 ZO 974,1 50 0,0
22.01.2021 00:00:00 -4,4 -5,9 10 5 20 11 OZO 974,6 50 -
21.01.2021 23:00:00 -5,4 -6,9 4 2 27 15 N 975,1 36 0,0
21.01.2021 22:00:00 -5,3 -6,8 14 8 27 14 OZO 974,9 7 0,0
21.01.2021 21:00:00 -5,2 -6,6 6 3 45 24 O 975,2 4,6 0,1
21.01.2021 20:00:00 -5,2 -6,7 28 15 51 28 OZO 974,9 1,6 0,2
21.01.2021 19:00:00 -5,3 -6,7 31 17 56 31 OZO 974,9 1,0 0,2
21.01.2021 18:00:00 -5,0 -6,4 13 7 32 17 O 976,3 7 0,1
21.01.2021 17:00:00 -5,4 -6,8 7 4 27 15 O 977,2 46 0,0
21.01.2021 16:00:00 -5,3 -6,5 11 6 27 14 O 978,2 7 0,1
21.01.2021 15:00:00 -5,5 -6,7 8 4 26 14 O 979,5 10 0,3
21.01.2021 14:00:00 -5,2 -6,4 8 5 41 22 ONO 980,1 2,8 0,5
21.01.2021 13:00:00 -5,3 -6,7 18 10 51 27 O 980,6 2,4 0,1
21.01.2021 12:00:00 -5,3 -6,7 28 15 49 26 OZO 981,5 3,0 0,0
21.01.2021 11:00:00 -6,2 -7,6 23 12 55 30 O 982,7 2,4 0,2
21.01.2021 10:00:00 -6,9 -8,4 23 12 50 27 O 983,6 1,4 0,3
21.01.2021 09:00:00 -7,0 -8,5 29 15 51 28 O 984,4 0,7 0,4
21.01.2021 08:00:00 -7,1 -8,6 21 12 50 27 O 985,4 0,8 0,9
21.01.2021 07:00:00 -7,3 -8,8 16 9 53 28 O 985,9 0,6 1,1
21.01.2021 06:00:00 -7,3 -8,8 17 9 50 27 O 987,5 0,5 1,2
21.01.2021 05:00:00 -6,9 -8,4 19 10 46 25 O 988,2 0,2 0,9
21.01.2021 04:00:00 -6,9 -8,4 20 11 44 24 O 988,9 0,3 1,2
21.01.2021 03:00:00 -7,2 -8,7 16 9 49 26 O 990,3 0,6 0,6
21.01.2021 02:00:00 -7,1 -8,6 17 9 43 23 O 991,3 0,7 0,4
21.01.2021 01:00:00 -7,0 -8,5 16 9 46 25 O 992,2 0,7 0,4
21.01.2021 00:00:00 -6,7 -8,2 16 9 39 21 O 993,1 0,9 0,5
20.01.2021 23:00:00 -6,7 -8,2 16 9 51 27 O 993,8 0,8 0,3
20.01.2021 22:00:00 -6,8 -8,6 19 10 45 24 O 994,2 1,4 0,1
20.01.2021 21:00:00 -6,8 -8,9 14 8 44 24 O 994,7 2,9 0,0
20.01.2021 20:00:00 -6,6 -9,0 22 12 39 21 O 995,5 3,9 0,0
20.01.2021 19:00:00 -6,9 -9,5 16 9 43 23 O 995,6 6 0,0
20.01.2021 18:00:00 -5,7 -9,4 19 11 44 24 O 995,9 13 0,0
20.01.2021 17:00:00 -5,4 -8,8 11 6 26 14 OZO 996,7 29 0,0
20.01.2021 16:00:00 -7,7 -11,4 7 4 25 14 W 997,9 40 0,0
20.01.2021 15:00:00 -5,6 -9,3 11 6 21 11 ZO 997,6 19 0,0
20.01.2021 14:00:00 -9,0 -11,8 8 4 26 14 O 998,5 32 0,0
20.01.2021 13:00:00 -7,4 -10,7 6 4 37 20 OZO 999,0 50 0,0
20.01.2021 12:00:00 -5,4 -9,3 21 11 45 24 ZO 998,9 50 0,0
20.01.2021 11:00:00 -8,6 -12,4 15 8 37 20 ZO 1000,1 28 0,0
20.01.2021 10:00:00 -12,0 -14,4 5 3 12 6 O 1001,0 46 0,0
20.01.2021 09:00:00 -11,3 -13,8 2 1 9 5 ZW 1001,2 17 0,0
20.01.2021 08:00:00 -11,6 -14,1 6 4 16 8 ZO 1001,3 38 0,0
20.01.2021 07:00:00 -10,8 -13,3 8 4 16 9 ZO 1001,7 50 0,0
20.01.2021 06:00:00 -9,7 -12,5 7 4 16 9 OZO 1001,4 50 0,0
20.01.2021 05:00:00 -7,5 -10,7 4 2 21 11 ZZO 1001,0 50 0,0
20.01.2021 04:00:00 -6,7 -10,2 9 5 30 16 OZO 1001,0 50 0,0
20.01.2021 03:00:00 -5,3 -9,2 19 10 33 18 ZO 1000,4 50 0,0
20.01.2021 02:00:00 -6,0 -9,5 16 9 32 17 ZO 1001,0 50 0,0
20.01.2021 01:00:00 -9,0 -10,9 4 2 11 6 W 1001,9 50 0,0
20.01.2021 00:00:00 -8,5 -11,2 3 1 17 9 ZO 1001,9 50 0,0
19.01.2021 23:00:00 -7,4 -9,6 5 3 17 9 Z 1001,6 50 0,0
19.01.2021 22:00:00 -10,7 -12,9 3 1 10 6 N 1002,3 50 0,0
19.01.2021 21:00:00 -11,3 -13,6 3 2 14 8 W 1002,4 50 0,0
19.01.2021 20:00:00 -9,8 -12,1 9 5 18 10 ZO 1002,2 48 0,0
19.01.2021 19:00:00 -9,8 -12,0 8 5 14 8 ZO 1002,3 50 0,0
19.01.2021 18:00:00 -12,0 -14,1 6 3 12 7 WZW 1002,6 50 0,0
19.01.2021 17:00:00 -15,8 -18,5 4 2 8 4 NW 1003,2 50 0,0
19.01.2021 16:00:00 -15,4 -17,6 8 4 14 7 ZO 1003,4 50 0,0
19.01.2021 15:00:00 -16,4 -19,0 4 2 9 5 OZO 1003,7 14 0,0
19.01.2021 14:00:00 -16,9 -19,7 5 3 10 6 O 1004,3 50 0,0
19.01.2021 13:00:00 -17,5 -20,3 3 2 7 4 ZO 1004,7 38 0,0
19.01.2021 12:00:00 -18,5 -21,1 3 2 8 4 ZZO 1005,1 36 0,0
19.01.2021 11:00:00 -21,2 -24,0 3 1 12 7 OZO 1005,8 50 0,0
19.01.2021 10:00:00 -23,6 -26,9 3 1 8 4 NW 1006,0 50 0,0
19.01.2021 09:00:00 -22,7 -25,8 4 2 9 5 ZO 1005,7 50 0,0
19.01.2021 08:00:00 -22,4 -25,6 3 2 7 4 ZW 1006,0 50 0,0
19.01.2021 07:00:00 -21,6 -24,7 3 2 9 5 WNW 1005,6 50 0,0
19.01.2021 06:00:00 -18,7 -20,9 4 2 14 8 ZZO 1005,4 50 0,0
19.01.2021 05:00:00 -19,8 -22,6 3 1 11 6 ONO 1005,6 50 0,0
19.01.2021 04:00:00 -19,0 -21,9 3 2 12 7 N 1005,5 50 0,0
19.01.2021 03:00:00 -16,8 -19,0 6 4 21 11 OZO 1005,4 50 0,0
19.01.2021 02:00:00 -15,6 -18,6 8 4 26 14 OZO 1005,4 50 0,0
19.01.2021 01:00:00 -12,8 -15,5 3 2 19 10 ZZW 1005,5 50 0,0
19.01.2021 00:00:00 -5,5 -9,9 10 5 36 20 ZO 1004,2 50 0,0
18.01.2021 23:00:00 -5,1 -9,7 19 10 38 20 Z 1004,0 50 0,0
18.01.2021 22:00:00 -9,3 -11,2 5 3 22 12 OZO 1005,5 50 -
18.01.2021 21:00:00 -17,5 -19,5 4 2 11 6 ZO 1006,7 8 0,0
18.01.2021 20:00:00 -18,3 -20,8 3 1 6 3 WNW 1006,9 49 0,0
18.01.2021 19:00:00 -17,6 -20,4 3 2 5 3 NW 1007,1 50 0,0
18.01.2021 18:00:00 -16,6 -19,4 0 0 6 3 N 1007,2 50 0,0
18.01.2021 17:00:00 -14,4 -16,1 0 0 5 3 N 1007,4 8 0,0
18.01.2021 16:00:00 -14,9 -17,3 0 0 7 4 N 1007,7 50 0,0
18.01.2021 15:00:00 -12,6 -15,0 2 1 4 2 N 1007,5 50 0,0
18.01.2021 14:00:00 -10,0 -12,6 2 1 5 3 ZO 1007,9 50 0,0
18.01.2021 13:00:00 -9,4 -12,7 0 0 3 2 N 1008,4 50 0,0
18.01.2021 12:00:00 -9,8 -13,1 0 0 3 2 N 1008,9 50 0,0
18.01.2021 11:00:00 -11,0 -13,3 2 1 5 3 ZO 1009,5 50 0,0
18.01.2021 10:00:00 -10,4 -12,9 0 0 - - N 1009,6 50 0,0
18.01.2021 09:00:00 -9,2 -12,0 3 1 4 2 ZO 1009,6 50 0,0
18.01.2021 08:00:00 -9,6 -12,2 2 1 6 4 WZW 1009,7 50 0,0
18.01.2021 07:00:00 -9,7 -12,7 5 3 6 4 OZO 1009,6 50 0,0
18.01.2021 06:00:00 -8,9 -12,9 3 2 - - O 1009,8 50 0,0
18.01.2021 05:00:00 -8,3 -11,0 0 0 8 4 N 1010,0 50 0,0
18.01.2021 04:00:00 -11,2 -13,8 3 1 5 3 ZW 1010,6 50 0,0
18.01.2021 03:00:00 -12,3 -15,3 0 0 6 3 N 1011,0 50 0,0
18.01.2021 02:00:00 -13,5 -16,4 0 0 10 5 N 1011,1 50 0,0
18.01.2021 01:00:00 -10,7 -15,5 2 1 8 5 NO 1011,0 50 0,0
18.01.2021 00:00:00 -6,7 -11,8 5 3 19 10 OZO 1010,5 50 0,0
17.01.2021 23:00:00 -7,1 -12,6 5 3 15 8 O 1010,8 50 0,0
17.01.2021 22:00:00 -7,9 -12,6 5 3 18 10 NNO 1010,9 50 0,0
17.01.2021 21:00:00 -9,0 -13,3 6 3 33 18 NNO 1011,0 50 0,0
17.01.2021 20:00:00 -9,2 -13,7 8 5 35 19 Z 1011,3 50 0,0
17.01.2021 19:00:00 -8,6 -13,6 9 5 29 15 WZW 1011,3 50 0,0
17.01.2021 18:00:00 -8,1 -13,1 5 3 36 19 OZO 1011,5 50 0,0
17.01.2021 17:00:00 -8,8 -13,6 19 10 40 22 ZW 1011,5 50 0,0
17.01.2021 16:00:00 -8,2 -13,8 18 10 34 18 ZZW 1011,7 50 0,0
17.01.2021 15:00:00 -7,2 -13,8 5 3 32 17 O 1011,6 50 0,0
17.01.2021 14:00:00 -8,0 -13,8 5 3 23 13 NNO 1011,5 50 0,0
17.01.2021 13:00:00 -6,9 -14,4 11 6 36 19 ZZW 1011,6 50 0,0
17.01.2021 12:00:00 -7,4 -14,2 18 10 39 21 ZW 1012,3 47 0,0
17.01.2021 11:00:00 -8,1 -14,7 10 5 34 18 ZW 1012,9 50 0,0
17.01.2021 10:00:00 -13,2 -15,0 7 4 19 11 ZO 1013,6 50 0,0
17.01.2021 09:00:00 -20,7 -23,8 4 2 15 8 OZO 1014,8 50 0,0
17.01.2021 08:00:00 -16,2 -19,1 5 3 29 16 OZO 1014,2 50 0,0
17.01.2021 07:00:00 -8,6 -13,3 18 10 35 19 ZZW 1012,6 50 0,0
17.01.2021 06:00:00 -10,4 -12,7 11 6 26 14 Z 1013,6 50 0,0
17.01.2021 05:00:00 -19,4 -21,7 10 5 20 11 ZO 1014,7 50 0,0
17.01.2021 04:00:00 -16,5 -19,6 14 8 22 12 ZO 1014,8 50 0,0
17.01.2021 03:00:00 -13,5 -16,7 11 6 35 19 OZO 1014,7 50 0,0
17.01.2021 02:00:00 -10,7 -12,9 11 6 27 15 Z 1014,5 47 0,1
17.01.2021 01:00:00 -17,8 -20,7 8 4 - - OZO 1016,4 50 0,0
17.01.2021 00:00:00 -17,9 -20,4 16 9 23 13 OZO 1016,5 14 0,0
16.01.2021 23:00:00 -22,2 -25,3 3 2 13 7 O 1018,1 50 0,0

tt = temperatuur
td = dauwpunt
ff = windsnelheid
fx = windstoten
dd = windrichting
ppp = luchtdruk
vv = zicht
rr = neerslag

Weerstations in de omgeving